Pellston, MI

3:26 AM EDT on June 23, 2017 (GMT -0400)
Pellston Regional Airport Of Emmet County

Weather History for KPLN - February, 2013

Change the Weather History Date:

Sunday, February 10, 2013

  Actual Average Record
Temperature  
Mean Temperature 22 °F -  
Max Temperature 33 °F 27 °F 54 °F (2009)
Min Temperature 10 °F 5 °F -32 °F (1962)
Degree Days  
Heating Degree Days 44    
Moisture  
Dew Point 22 °F    
Average Humidity 80    
Maximum Humidity 93    
Minimum Humidity 64    
Precipitation  
Precipitation 0.33 in - - ()
Sea Level Pressure  
Sea Level Pressure 29.88 in    
Wind  
Wind Speed 7 mph (ESE)    
Max Wind Speed 15 mph    
Max Gust Speed 25 mph    
Visibility 7 miles    
Events Rain , Snow    
Averages and records for this station are not official NWS values.
T = Trace of Precipitation, MM = Missing Value Source: NWS Daily Summary

Daily Weather History Graph

Daily Weather History Graph

Search for Another Location

Airport or City:

Trip Planner

Search our weather history database for the weather conditions in past years. The results will help you decide how hot, cold, wet, or windy it might be!

Date:

Astronomy

Feb. 10, 2013 Rise Set
Actual Time 7:48 AM EST 5:59 PM EST
Civil Twilight 7:17 AM EST 6:30 PM EST
Nautical Twilight 6:42 AM EST 7:05 PM EST
Astronomical Twilight 6:07 AM EST 7:39 PM EST
Moon 7:33 AM EST (2/10) 6:54 PM EST (2/10)
Length of Visible Light 11h 12m
Length of Day
10h 11m
New Moon, 0% of the Moon is Illuminated
Feb 10
New Moon
Feb 17
First Quarter
Feb 25
Full
Mar 4
Last Quarter
Mar 11
New

Hourly Weather History & Observations

Time (EST) Temp. Windchill Dew Point Humidity Pressure Visibility Wind Dir Wind Speed Gust Speed Precip Events Conditions
12:54 AM 10.9 °F - 7.0 °F 84% 30.23 in 10.0 mi Calm Calm - N/A   Overcast
1:54 AM 21.0 °F 14.6 °F 12.9 °F 71% 30.20 in 10.0 mi South 4.6 mph - N/A   Overcast
2:54 AM 19.0 °F 13.9 °F 12.9 °F 77% 30.18 in 10.0 mi SE 3.5 mph - N/A   Overcast
3:54 AM 21.0 °F - 12.9 °F 71% 30.18 in 10.0 mi Calm Calm - N/A   Overcast
4:54 AM 21.0 °F 14.6 °F 14.0 °F 74% 30.17 in 10.0 mi SE 4.6 mph - N/A   Overcast
5:54 AM 21.9 °F 14.5 °F 15.1 °F 75% 30.17 in 10.0 mi SE 5.8 mph - N/A   Overcast
6:54 AM 21.0 °F 12.4 °F 15.1 °F 78% 30.17 in 10.0 mi SE 6.9 mph - N/A   Overcast
7:54 AM 19.9 °F 10.1 °F 15.1 °F 81% 30.17 in 10.0 mi SE 8.1 mph - N/A   Overcast
8:54 AM 19.0 °F 10.0 °F 14.0 °F 81% 30.17 in 10.0 mi SE 6.9 mph - N/A   Mostly Cloudy
9:09 AM 19.4 °F 9.5 °F 14.0 °F 80% 30.10 in 10.0 mi SE 8.1 mph - N/A   Scattered Clouds
9:54 AM 19.9 °F 10.1 °F 14.0 °F 78% 30.12 in 10.0 mi SE 8.1 mph - N/A   Clear
10:54 AM 21.9 °F 10.4 °F 16.0 °F 78% 30.08 in 10.0 mi SE 11.5 mph - N/A   Clear
11:54 AM 25.0 °F 15.5 °F 17.1 °F 72% 30.06 in 10.0 mi ESE 9.2 mph - N/A   Clear
1:54 PM 30.0 °F 21.7 °F 19.9 °F 66% 29.97 in 10.0 mi East 9.2 mph - N/A   Partly Cloudy
2:54 PM 32.0 °F 23.0 °F 21.0 °F 64% 29.94 in 10.0 mi East 11.5 mph - N/A   Mostly Cloudy
3:54 PM 33.1 °F 24.4 °F 21.9 °F 64% 29.89 in 10.0 mi East 11.5 mph - N/A   Overcast
4:54 PM 33.1 °F 25.5 °F 23.0 °F 66% 29.85 in 10.0 mi ESE 9.2 mph - N/A   Overcast
5:54 PM 33.1 °F 25.5 °F 25.0 °F 72% 29.80 in 10.0 mi ESE 9.2 mph - 0.00 in Rain Light Rain
6:23 PM 33.8 °F 25.3 °F 26.6 °F 75% 29.75 in 8.0 mi ESE 11.5 mph 19.6 mph 0.01 in Rain Light Freezing Rain
6:54 PM 32.0 °F 22.1 °F 27.0 °F 82% 29.77 in 6.0 mi ESE 13.8 mph 25.3 mph 0.02 in Rain Light Freezing Rain
7:38 PM 32.0 °F 23.0 °F 28.4 °F 87% 29.71 in 5.0 mi SE 11.5 mph - 0.04 in   Overcast
7:54 PM 32.0 °F 23.0 °F 28.9 °F 88% 29.73 in 4.0 mi ESE 11.5 mph 19.6 mph 0.07 in Rain Light Freezing Rain
8:29 PM 32.0 °F 22.5 °F 28.4 °F 87% 29.68 in 4.0 mi ESE 12.7 mph 20.7 mph 0.06 in Rain Light Freezing Rain
8:54 PM 32.0 °F 23.0 °F 28.9 °F 88% 29.68 in 4.0 mi ESE 11.5 mph 24.2 mph 0.10 in Rain Light Freezing Rain
9:01 PM 32.0 °F 21.6 °F 30.2 °F 93% 29.64 in 4.0 mi SE 15.0 mph 21.9 mph 0.00 in Rain Light Freezing Rain
9:11 PM 32.0 °F 23.0 °F 30.2 °F 93% 29.64 in 4.0 mi SE 11.5 mph - 0.02 in Rain Light Freezing Rain
9:54 PM 33.1 °F 24.4 °F 30.0 °F 89% 29.64 in 4.0 mi ESE 11.5 mph - 0.09 in Rain Light Freezing Rain
10:07 PM 33.8 °F 25.3 °F 30.2 °F 87% 29.60 in 3.0 mi SE 11.5 mph 19.6 mph 0.01 in Snow Light Snow
10:20 PM 33.8 °F 26.4 °F 30.2 °F 87% 29.59 in 2.5 mi ESE 9.2 mph 19.6 mph 0.02 in Snow Light Snow
10:29 PM 33.8 °F 26.4 °F 30.2 °F 87% 29.59 in 1.2 mi ESE 9.2 mph - 0.03 in Snow Light Snow
10:45 PM 33.8 °F 26.4 °F 30.2 °F 87% 29.58 in 2.5 mi ESE 9.2 mph - 0.04 in Snow Light Snow
10:54 PM 33.1 °F 25.5 °F 30.9 °F 92% 29.60 in 2.5 mi SE 9.2 mph - 0.04 in Snow Light Snow
11:09 PM 33.8 °F 26.4 °F 30.2 °F 87% 29.56 in 3.0 mi ESE 9.2 mph - 0.00 in Snow Light Snow
11:54 PM 33.1 °F 24.9 °F 30.9 °F 92% 29.55 in 7.0 mi SE 10.4 mph - 0.01 in Rain Light Rain